Zurück zum Katalog

XIGUANG 1-05

AktivWissenschaftSSO
NORAD 61901·PAYLOAD·🇨🇳 China
Dieser Satellitenname wurde noch nicht durch offizielle Quellen bestätigt.

Gestartet Nov 11, 2024 von Jiuquan Satellite Launch Center

Loading…

Nächste Überflüge (nächste 24 Stunden)

TLE

AktuellSource: Space-Track

Epoche: Sep 14, 2026, 15:40 UTC

1 61901U 24205H   26257.65335035  .00010496  00000-0  32386-3 0  9997
2 61901  97.4044 335.7831 0010836  81.9890 278.2582 15.33700541102422

Verfolge XIGUANG 1-05 in Echtzeit mit AllMySat

Download on the App Store